Simultaneous Nadir Overpasses (SNOs) Predictions

Prediction of SNOs between GOES-16 and METOP-B Satellite Orbit:

Table of predicted SNOs for the next 14.0 days since TLE Epoch: 5/25/2019
Index Date Time (GOES-16) GOES-16 Lat,Lon METOP-B Lat,Lon Distance(km) Time Diff (sec)
1 05/25/2019 14:47:22 0.00, -75.20 0.83, -79.01 433.49 80
2 05/26/2019 14:24:03 -0.01, -75.20 -0.27, -74.01 135.60 80
3 05/28/2019 02:45:44 0.02, -75.19 -0.73, -78.61 389.76 80
4 05/29/2019 02:22:25 0.02, -75.20 0.36, -73.61 180.04 80
5 05/30/2019 14:43:57 -0.02, -75.23 0.63, -78.18 335.97 80
6 05/31/2019 14:20:37 -0.02, -75.24 -0.47, -73.18 234.23 80
7 06/02/2019 02:42:19 0.01, -75.24 -0.53, -77.79 289.95 80
8 06/03/2019 02:18:59 0.02, -75.25 0.57, -72.79 280.19 80
9 06/04/2019 14:40:32 -0.02, -75.28 0.42, -77.35 235.71 80
10 06/05/2019 14:17:12 -0.03, -75.29 -0.67, -72.36 334.42 80
11 06/07/2019 02:38:53 0.03, -75.29 -0.31, -76.96 189.65 80




NCC Satellite Simultaneous Nadir Overpasses (SNOs) Prediction Service
